Regional Weather Roundup
Issued by NWS Burlington, VT

Home | Current Version | Previous Version | Text Only | Print | Product List | Glossary On
Versions: 1 2 3 4 5 6 7 8 9 10 11 12 13 14 15 16 17 18 19 20 21 22 23 24 25 26 27 28 29 30 31 32 33 34 35 36 37 38 39 40 41 42 43 44 45 46 47 48 49 50
000
ASUS41 KBTV 300130
RWRBTV
VERMONT REGIONAL WEATHER ROUNDUP
NATIONAL WEATHER SERVICE BURLINGTON VT
900 PM EDT FRI JUL 29 2016

NOTE: "FAIR" INDICATES FEW OR NO CLOUDS BELOW 12,000 FEET WITH NO
SIGNIFICANT WEATHER AND/OR OBSTRUCTIONS TO VISIBILITY.

* THESE REPORTS ARE NOT UNDER NWS QUALITY CONTROL AND/OR DO NOT
  REPORT WEATHER SUCH AS PRECIPITATION AND FOG.

VTZ001>019-300200-
_____VERMONT_____


CITY           SKY/WX    TMP DP  RH WIND       PRES   REMARKS
BURLINGTON     FAIR      74  57  55 N5        29.96R
MONTPELIER     FAIR      68  57  68 NW3       30.02R
MORRISVILLE    FAIR      64  58  80 N6        29.99R
ST. JOHNSBURY*   N/A     71  57  61 MISG      29.95R
LYNDONVILLE*   FAIR      66  56  70 NW5       30.01R
MIDDLEBURY*    FAIR      68  58  72 CALM      29.96R
RUTLAND*       FAIR      71  60  68 N6        29.96R
SPRINGFIELD    FAIR      76  55  48 VRB3      29.93R
HIGHGATE*      FAIR      67  58  70 NE5       29.98R
NEWPORT*       FAIR      64  55  74 NW6       30.01R
BENNINGTON     FAIR      66  60  81 CALM      29.94R
GALLUP MILLS*    N/A     61 N/A N/A MISG        N/A
UNION VILLAGE*   N/A     70 N/A N/A MISG        N/A
MT. MANSFIELD*   N/A     57 N/A N/A N15         N/A

_____LAKE CHAMPLAIN_____


CITY           SKY/WX    TMP DP  RH WIND       PRES   REMARKS
BURTON ISLAND*   N/A     72  61  68 N1          N/A
COLCHESTER RF*   N/A     75  63  64 N9          N/A
DIAMOND ISL*     N/A     73  63  68 N9          N/A

$$

NYZ007-026>031-035-052-083-087-300200-
_____NORTHERN NEW YORK_____


CITY           SKY/WX    TMP DP  RH WIND       PRES   REMARKS
PLATTSBURGH    PTCLDY    71  59  65 N9        29.96R
SARANAC LAKE   CLEAR     63  55  75 N3        30.01R
MASSENA        PTCLDY    69  55  60 N5        29.99R
OGDENSBURG*    CLEAR     70  55  60 N3        30.00R
POTSDAM*       CLEAR     66  61  82 N3        30.01R
STARK FALLS*     N/A    104 N/A N/A N1          N/A
WATERTOWN      CLEAR     73  52  47 NE8       29.97R
FT DRUM        CLEAR     69  57  63 N7        29.98R
ALBANY         PTCLDY    76  59  55 N5        29.91R
GLENS FALLS    CLEAR     73  57  57 N6        29.94R

$$
NHZ002-005-011-300200-
_____NEW HAMPSHIRE_____


CITY           SKY/WX    TMP DP  RH WIND       PRES   REMARKS
LEBANON        CLEAR     72  57  59 NE6       29.93R
KEENE          CLEAR     70  68  94 CALM      29.93R FOG
MT WASHINGTON  FOG       50  50 100 NW15        N/A  VSB 1/16
PLYMOUTH       FAIR      67  62  84 CALM      29.94R
WHITEFIELD     PTCLDY    68  57  68 CALM      29.97R

$$

_____REGIONAL QUEBEC LOCATIONS_____


CITY           SKY/WX    TMP DP  RH WIND       PRES   REMARKS
MONTREAL       MOCLDY    72  54  53 NW8       29.97R
QUEBEC CITY    PTCLDY    68  54  60 N6        29.95R
SHERBROOKE     CLEAR     63  55  77 CALM      29.98R

_____REGIONAL ONTARIO LOCATIONS_____


CITY           SKY/WX    TMP DP  RH WIND       PRES   REMARKS
OTTAWA         PTCLDY    70  54  56 N10       30.02R

______KEY______
VSB  - VISIBILITY IN MILES
WCI  - WIND CHILL INDEX
HX   - HEAT INDEX
$$
NNNN



USA.gov is the U.S. government's official web portal to all federal, state and local government web resources and services.